Погода в Майском

Россия / Алтайский край     52°46′01″N   81°21′10″E
В апреле 2022 года жителям России запретили посещать сайт meteo.paraplan.net по решению Генеральной прокуратуры. Аудитория сайта уменьшилась в 10 раз. Владельцы сайта не видят смысла в поддержке погодного сервера в таких условиях. Сайт будет закрыт в октябре.
темп.,
°C
ветер,
м/с
пор.,
м/с
влажн.,
%
обл.,
%
осадки,
мм/ч
давл.,
гПа
погр.,
м
5 октября, ср
ср501:00+3сз22565 0.0 103410
04:00+2з226199 0.0 103413
07:00+1зюз3463100 0.0 103452
10:00+4зюз4855100 0.1 1034301
13:00+5юз51055100 0.4 1034370
16:00+7зюз5847100 0.0 1033518
19:00+7зюз365755 0.0 1033127
22:00+7юз4760100 0.0 1033146
6 октября, чт
чт601:00+8юз4958100 0.0 1032200
04:00+5зюз4976100 0.0 1030149
07:00+6зюз41083100 0.0 1030197
10:00+8з4972100 0.0 1030355
13:00+12зсз564897 0.0 1029760
16:00+13сз4544100 0.0 10291210
19:00+9всв237694 0.0 103048
22:00+7вюв349199 0.0 103172
7 октября, пт
пт701:00+6юв369416 0.0 1031119
04:00+5ююв349548 0.0 103176
07:00+4ююв3494100 0.0 103062
10:00+7ююв358099 0.0 1029201
13:00+13ю334478 0.0 1028658
16:00+15ю2228100 0.0 1026960
19:00+11юв3336100 0.0 102528
22:00+8ююв464299 0.0 102483
8 октября, сб
сб801:00+7ююв4756100 0.0 1023108
04:00+6ююв4773100 0.0 1022103
07:00+5ююв486969 0.0 1020113
10:00+10ю5103461 0.0 1018265
13:00+18ю7101899 0.0 1015778
16:00+21ююз71017100 0.0 10121286
19:00+16ю41122100 0.0 1011162
22:00+14ю6152697 0.0 1010262
9 октября, вс
вс901:00+15ю8162878 0.0 1009427
04:00+14ююз7153199 0.0 1008416
07:00+11ююз714365 0.0 1009354
10:00+10зюз814490 0.0 1012799
13:00+12зюз101446100 0.0 10141902
16:00+11юз91448100 0.0 10151857
19:00+10з6105996 0.0 10171202
22:00+8зюз4107474 0.1 1020458